Location: St. Louis
(38.6270°N, 90.1994°W)
Time: 23:02:42
(UTC-06:00)

BlueWalker 3 - Visible Passes

Search period start: 07 December 2025 00:00
Search period end: 17 December 2025 00:00
Orbit: 455 x 462 km, 53.2° (Epoch: 06 December)

Date Brightness Start Highest point End Pass type
(mag) Time Alt. Az. Time Alt. Az. Time Alt. Az.
07 Dec 2.9 17:18:01 10° NNW 17:21:06 25° NNE 17:24:05 10° E visible
07 Dec 3.3 18:55:17 10° WNW 18:57:56 35° W 18:57:56 35° W visible
08 Dec 2.4 18:20:23 10° WNW 18:23:56 56° SW 18:25:44 26° SSE visible
09 Dec 1.9 17:45:30 10° NW 17:49:07 76° SW 17:52:43 10° SE visible
10 Dec 1.7 17:10:38 10° NW 17:14:16 80° NE 17:17:52 10° SE visible
10 Dec 5.3 18:51:02 10° WSW 18:51:16 10° SW 18:51:31 10° SW visible
11 Dec 5.0 18:14:37 10° W 18:16:30 14° SW 18:18:25 10° SSW visible
12 Dec 4.9 17:39:10 10° W 17:41:44 18° SW 17:44:17 10° S visible
13 Dec 4.6 17:03:56 10° WNW 17:06:54 24° SW 17:09:52 10° S visible
